User: anonymous   Login
Location: Unspecified
(0.0000°N, 0.0000°E)
Time: 22:34:44
(UTC+00:00)
Language:

STARLINK-5960 - Orbit

View from above orbital plane
View from above orbital plane
View from above satellite
View from above satellite

Ground track
Ground track

The orbit is defined by the following mean orbital elements,

1 56920U          26145.61187970 +.00000000 +00000-0 +11528-4 0 00003
2 56920  43.0032 356.1516 0000946 244.8692 115.2062 15.27574848    05
Epoch (UTC): 25 May 2026 14:41:06
Eccentricity: 0.0000946
inclination: 43.0032°
perigee height: 482 km
apogee height: 484 km
right ascension of ascending node: 356.1516°
argument of perigee: 244.8692°
revolutions per day: 15.27574848
mean anomaly at epoch: 115.2062°

The dashed part of the orbit path shows where the satellite is in the earth's shadow,  

DLR